CZ-6A DEB, 54516

Orbit data source: Space-Track

CZ-6A DEB, 54516 is space debris in SSO originally from a launch on Fri, 11 Nov 2022 UTC launched from the Taiyaun Space Center, China (TSC). Debris objects in space refer to the collection of defunct objects orbiting the Earth. Examples of debris include non-operational satellites, rocket bodies, and fragments generated from explosions, collisions, or faulty payload assembly.

Loading next visibility...
Identifier
54516, 2022-151JU
Orbit
SSO
Country
Flag of CNCN / PRC
Related business
Manufacturer
SAST
Mission
Spacecraft
Bus & Motor
Unknown
Mass
Unknown
Launch date (UTC)
2022-11-11 (4 years ago)
Launch vehicle
Unknown
Launch site
Taiyaun Space Center, China (TSC)
Object type
Payload
Rocket body
Debris
Shape & HBR
Unknown shape, 0.1 m
Radar Cross Section
Medium (>0.1 m² and <1 m²)

Expand to show TLE details & history
Last TLE update: 3 days ago

TLE from 3 days ago
0 CZ-6A DEB
1 54516U 22151JU  26170.36167852  .00000729  00000-0  20911-3 0  9990
2 54516  98.5431 201.3930 0134513 335.7618  23.7281 14.42972204189085
Epoch: 2026-06-19T08:40Z
TLE epoch observation values (Epoch: 2026-06-19T08:40:49.024Z)
Latitude
-0.00002°
Longitude
163.59698°
Altitude
664.081 km
Speed
7.571 km/s
True Right ascension
13h 25m 34s
True Declination
0° 00' 00"
Sunlit
Object was in daylight at epoch
Visualization orbit readout
Latitude
Unknown
Longitude
Unknown
Altitude
Unknown
Speed
Unknown
Apparent Right ascension
Unknown
Apparent Declination
Unknown
Sunlit
N/A
Visualization observer readout
Local Sidereal Time
21:24:08
Azimuth
Unknown
Elevation
Unknown
Doppler factor
Unknown
Orbital elements
Apogee altitude
841.641 km
Perigee altitude
649.988 km
Semi-major axis
7,123.951 km
Eccentricity
0.01345
Inclination
98.5431°
RAAN
201.393°
Arg. of periapsis
335.7618°
True anomaly
24.35803°
Mean anomaly
23.7281°
Eccentric anomaly
24.04209°
Mean motion
3.60962 °/min
Orbital period
99.73 mins
BSTAR
0.00020911
Loading maneuver chart data...
Computing Atmospheric mass density...
Loading historical data...
Loading historical data...
Loading historical data...
Loading historical data...
Loading historical data...
Loading historical data...
Loading historical data...

Documentation

Showing up to 5 results
|